Location: Mascot Post Office (historical)
(40.2645°N, 99.5462°W)
Time: 10:34:30
(UTC+00:00)

NOSS 3-4 (C) - Pass Details

Date: 24 October 2020
Orbit: 886 x 1326 km, 63.4° (Epoch: 06 November)

Event Time Altitude Azimuth Distance (km) Brightness Sun altitude
Rises 03:42:07 0° 326° (NW) 3,857 7.2 -44.8°
Reaches altitude 10° 03:44:40 10° 327° (NNW) 2,959 6.5 -45.2°
Enters shadow 03:46:53 23° 330° (NNW) 2,210 5.6 -45.6°
